TimeEDT,TemperatureF,Dew PointF,Humidity,Sea Level PressureIn,VisibilityMPH,Wind Direction,Wind SpeedMPH,Gust SpeedMPH,PrecipitationIn,Events,Conditions,WindDirDegrees,DateUTC
12:14 AM,64.4,59.0,83,29.95,10.0,ESE,9.2,-,N/A,Rain,Light Rain,110,2013-06-10 04:14:00
12:34 AM,64.4,60.8,88,29.94,10.0,East,8.1,-,0.02,Rain,Light Rain,90,2013-06-10 04:34:00
12:54 AM,64.4,59.0,83,29.94,10.0,East,9.2,-,0.02,,Overcast,90,2013-06-10 04:54:00
1:14 AM,62.6,60.8,94,29.93,10.0,East,6.9,-,N/A,,Overcast,80,2013-06-10 05:14:00
1:34 AM,62.6,59.0,88,29.92,10.0,ENE,8.1,-,N/A,Rain,Light Rain,70,2013-06-10 05:34:00
1:54 AM,62.6,59.0,88,29.92,10.0,ENE,8.1,-,N/A,,Overcast,70,2013-06-10 05:54:00
2:14 AM,62.6,59.0,88,29.91,10.0,ENE,8.1,-,N/A,,Overcast,60,2013-06-10 06:14:00
2:34 AM,62.6,59.0,88,29.91,10.0,ENE,5.8,-,N/A,,Overcast,70,2013-06-10 06:34:00
2:54 AM,62.6,57.2,82,29.91,10.0,ENE,3.5,-,N/A,,Overcast,60,2013-06-10 06:54:00
3:14 AM,62.6,57.2,82,29.91,10.0,East,4.6,-,N/A,,Overcast,80,2013-06-10 07:14:00
3:34 AM,62.6,59.0,88,29.90,7.0,NNE,4.6,-,0.01,Rain,Rain,30,2013-06-10 07:34:00
3:54 AM,62.6,57.2,82,29.89,7.0,NNE,5.8,-,0.02,,Overcast,20,2013-06-10 07:54:00
4:13 AM,62.6,57.2,82,29.89,7.0,Calm,Calm,-,N/A,,Drizzle,0,2013-06-10 08:13:00
4:34 AM,62.6,57.2,82,29.88,7.0,NE,3.5,-,N/A,,Overcast,40,2013-06-10 08:34:00
4:54 AM,62.6,59.0,88,29.87,10.0,North,3.5,-,N/A,,Overcast,10,2013-06-10 08:54:00
5:14 AM,62.6,59.0,88,29.87,10.0,NE,4.6,-,N/A,,Overcast,50,2013-06-10 09:14:00
5:34 AM,62.6,59.0,88,29.87,10.0,NE,4.6,-,N/A,Rain,Light Rain,50,2013-06-10 09:34:00
5:55 AM,62.6,59.0,88,29.86,10.0,NE,5.8,-,N/A,,Overcast,40,2013-06-10 09:55:00
6:14 AM,62.6,59.0,88,29.86,7.0,NE,3.5,-,N/A,Rain,Light Rain,50,2013-06-10 10:14:00
6:34 AM,62.6,59.0,88,29.85,10.0,NE,3.5,-,0.02,Rain,Light Rain,50,2013-06-10 10:34:00
6:54 AM,62.6,60.8,94,29.85,5.0,ENE,4.6,-,0.03,Rain,Rain,70,2013-06-10 10:54:00
7:14 AM,62.6,60.8,94,29.85,5.0,East,4.6,-,N/A,,Light Drizzle,80,2013-06-10 11:14:00
7:34 AM,62.6,60.8,94,29.84,4.0,ENE,5.8,-,N/A,,Overcast,60,2013-06-10 11:34:00
7:54 AM,62.6,60.8,94,29.84,4.0,ENE,4.6,-,N/A,,Overcast,70,2013-06-10 11:54:00
8:14 AM,64.4,60.8,88,29.83,4.0,East,5.8,-,N/A,,Overcast,80,2013-06-10 12:14:00
8:34 AM,64.4,62.6,94,29.83,3.0,Calm,Calm,-,N/A,Rain,Light Rain,0,2013-06-10 12:34:00
8:54 AM,64.4,62.6,94,29.83,2.5,Calm,Calm,-,0.03,Rain,Rain,0,2013-06-10 12:54:00
9:14 AM,66.2,62.6,88,29.83,3.0,Calm,Calm,-,0.03,Rain,Light Rain,0,2013-06-10 13:14:00
9:34 AM,66.2,64.4,94,29.83,4.0,SE,4.6,-,0.05,Rain,Light Rain,140,2013-06-10 13:34:00
9:54 AM,66.2,64.4,94,29.82,3.0,SE,5.8,-,0.06,Rain,Light Rain,130,2013-06-10 13:54:00
10:14 AM,66.2,64.4,94,29.82,3.0,SE,4.6,-,0.01,Rain,Rain,140,2013-06-10 14:14:00
10:34 AM,66.2,64.4,94,29.81,3.0,SE,5.8,-,0.02,Rain,Rain,140,2013-06-10 14:34:00
10:54 AM,66.2,64.4,94,29.81,3.0,SE,6.9,-,0.02,Rain,Light Rain,140,2013-06-10 14:54:00
11:14 AM,66.2,64.4,94,29.80,3.0,SE,5.8,-,0.01,Rain,Light Rain,130,2013-06-10 15:14:00
11:35 AM,66.2,64.4,94,29.80,4.0,ESE,8.1,-,0.02,Rain,Light Rain,120,2013-06-10 15:35:00
11:54 AM,66.2,64.4,94,29.80,5.0,ESE,6.9,-,0.02,Rain,Light Rain,120,2013-06-10 15:54:00
12:14 PM,68.0,64.4,88,29.79,7.0,ESE,4.6,-,0.01,Rain,Light Rain,110,2013-06-10 16:14:00
12:34 PM,69.8,66.2,88,29.78,10.0,ESE,3.5,-,0.02,Rain,Light Rain,110,2013-06-10 16:34:00
12:54 PM,69.8,66.2,88,29.79,7.0,South,3.5,-,0.02,Rain,Light Rain,190,2013-06-10 16:54:00
1:15 PM,68.0,64.4,88,29.78,10.0,South,3.5,-,0.01,Rain,Light Rain,170,2013-06-10 17:15:00
1:34 PM,69.8,66.2,88,29.78,10.0,SSE,4.6,-,0.01,,Mostly Cloudy,160,2013-06-10 17:34:00
1:54 PM,69.8,66.2,88,29.77,10.0,SSE,4.6,-,0.01,,Mostly Cloudy,160,2013-06-10 17:54:00
2:14 PM,69.8,64.4,83,29.77,7.0,South,5.8,-,N/A,,Mostly Cloudy,190,2013-06-10 18:14:00
2:34 PM,66.2,64.4,94,29.77,2.0,SSW,8.1,-,0.02,Rain,Heavy Rain,210,2013-06-10 18:34:00
2:54 PM,66.2,64.4,94,29.77,2.0,SSW,6.9,-,0.13,Rain,Heavy Rain,200,2013-06-10 18:54:00
3:14 PM,66.2,64.4,94,29.77,2.0,Calm,Calm,-,0.13,Rain,Heavy Rain,0,2013-06-10 19:14:00
3:34 PM,66.2,64.4,94,29.77,2.0,Calm,Calm,-,0.23,Rain,Heavy Rain,0,2013-06-10 19:34:00
3:54 PM,66.2,64.4,94,29.77,7.0,Calm,Calm,-,0.29,Rain,Rain,0,2013-06-10 19:54:00
4:14 PM,66.2,64.4,94,29.77,10.0,Calm,Calm,-,0.02,Rain,Light Rain,0,2013-06-10 20:14:00
4:34 PM,66.2,64.4,94,29.76,10.0,Calm,Calm,-,0.02,,Mostly Cloudy,0,2013-06-10 20:34:00
4:54 PM,66.2,64.4,94,29.75,7.0,Calm,Calm,-,0.02,,Mostly Cloudy,0,2013-06-10 20:54:00
5:14 PM,66.2,62.6,88,29.75,3.0,SE,3.5,-,0.01,Rain,Rain,140,2013-06-10 21:14:00
5:34 PM,66.2,64.4,94,29.75,2.5,Calm,Calm,-,0.01,Rain,Light Rain,0,2013-06-10 21:34:00
5:54 PM,66.2,64.4,94,29.74,3.0,Calm,Calm,-,0.01,,Light Drizzle,0,2013-06-10 21:54:00
6:14 PM,66.2,64.4,94,29.74,3.0,SSW,5.8,-,N/A,Rain,Light Rain,210,2013-06-10 22:14:00
6:34 PM,66.2,62.6,88,29.74,0.8,South,3.5,-,N/A,,Light Drizzle,180,2013-06-10 22:34:00
6:54 PM,66.2,62.6,88,29.74,1.0,Calm,Calm,-,N/A,Rain,Light Rain,0,2013-06-10 22:54:00
7:14 PM,66.2,62.6,88,29.74,4.0,Calm,Calm,-,N/A,,Mostly Cloudy,0,2013-06-10 23:14:00
7:34 PM,66.2,62.6,88,29.75,5.0,Calm,Calm,-,N/A,,Overcast,0,2013-06-10 23:34:00
7:54 PM,66.2,62.6,88,29.75,4.0,Calm,Calm,-,N/A,Rain,Light Rain,0,2013-06-10 23:54:00
8:14 PM,66.2,62.6,88,29.75,3.0,Calm,Calm,-,0.01,Rain,Light Rain,0,2013-06-11 00:14:00
8:35 PM,64.4,62.6,94,29.75,0.8,South,4.6,-,0.03,Rain,Rain,180,2013-06-11 00:35:00
8:54 PM,64.4,62.6,94,29.75,0.8,South,9.2,-,0.06,Rain,Rain,180,2013-06-11 00:54:00
9:14 PM,64.4,62.6,94,29.75,2.5,SSE,3.5,-,0.02,Rain,Light Rain,160,2013-06-11 01:14:00
9:34 PM,64.4,62.6,94,29.75,3.0,Calm,Calm,-,0.03,Rain,Light Rain,0,2013-06-11 01:34:00
9:54 PM,64.4,62.6,94,29.75,1.5,Calm,Calm,-,0.03,,Overcast,0,2013-06-11 01:54:00
10:14 PM,64.4,62.6,94,29.74,3.0,Calm,Calm,-,N/A,,Overcast,0,2013-06-11 02:14:00
10:34 PM,64.4,62.6,94,29.75,3.0,Calm,Calm,-,N/A,,Mostly Cloudy,0,2013-06-11 02:34:00
10:54 PM,64.4,62.6,94,29.75,2.5,Calm,Calm,-,N/A,,Overcast,0,2013-06-11 02:54:00
11:14 PM,64.4,62.6,94,29.75,1.0,SSW,3.5,-,N/A,,Overcast,210,2013-06-11 03:14:00
11:34 PM,64.4,62.6,94,29.75,1.8,Calm,Calm,-,N/A,,Mostly Cloudy,0,2013-06-11 03:34:00
11:54 PM,64.4,60.8,88,29.75,1.5,South,3.5,-,N/A,,Overcast,190,2013-06-11 03:54:00